Hourly Weather Roundup
Issued by NWS Central Illinois

Home | Current Version | Previous Version | Text Only | Print | Product List | Glossary On
Versions: 1 2 3 4 5 6 7 8 9 10 11 12 13 14 15 16 17 18 19 20 21 22 23 24 25 26 27 28 29 30 31 32 33 34 35 36 37 38 39 40 41 42 43 44 45 46 47 48 49 50
000
NZUS43 KILX 292110
HWRILX

AREA WEATHER ROUNDUP
NATIONAL WEATHER SERVICE, LINCOLN IL
400 PM CDT MON JUN 29 2015


CITY           SKY/WX    TMP DP  RH WIND       PRES   REMARKS
BLOOMINGTON    MOSUNNY   79  65  62 W14       29.83S HX  81
CHAMPAIGN      MOSUNNY   78  64  61 W12       29.81S HX  80
DANVILLE       RAIN      76  67  73 NW5       29.78S
DECATUR        MOSUNNY   80  64  58 W14       29.83S HX  82
EFFINGHAM      MOSUNNY   79  62  57 W10G20    29.85F HX  80
FLORA          SUNNY     79  64  60 W14       29.85F HX  81
GALESBURG      MOSUNNY   77  63  61 NW3       29.83F
JACKSONVILLE   MOSUNNY   80  68  65 W8        29.85F HX  83
LACON          MOSUNNY   77  63  61 W9        29.80F
LAWRENCEVILLE  MOSUNNY   80  65  59 W14       29.83S HX  82
LITCHFIELD     MOSUNNY   77  63  61 W10G16    29.87S
$$


CITY           SKY/WX    TMP DP  RH WIND       PRES   REMARKS
LINCOLN        MOSUNNY   80  63  56 W8        29.83S HX  81
MACOMB         MOSUNNY   78  66  66 NW7       29.86F HX  80
MATTOON        PTSUNNY   79  65  62 W16       29.82S HX  81
MT CARMEL AP   SUNNY     81  61  50 W14       29.83S HX  81
OLNEY-NOBLE AP MOSUNNY   79  64  61 W9        29.85S HX  81
PARIS          PTSUNNY   76  66  71 W9        29.81S
PEORIA         MOSUNNY   80  64  58 W12       29.82F HX  82
PONTIAC        MOSUNNY   79  66  65 W12G20    29.80S HX  81
RANTOUL        PTSUNNY   77  66  67 W8        29.80S
ROBINSON       MOSUNNY   78  65  63 W10       29.83S HX  80
SPRINGFIELD    MOSUNNY   79  66  64 NW9       29.85S HX  81
TAYLORVILLE    PTSUNNY   77  66  69 W10       29.85S
$$

...REGIONAL REPORTS...


CITY           SKY/WX    TMP DP  RH WIND       PRES   REMARKS
CHICAGO O`HARE TSTM      67  64  90 SW9       29.80R FOG
KANKAKEE       CLOUDY    68  63  82 NE6       29.81S THUNDER
MOLINE         SUNNY     80  65  59 W9        29.81F HX  82
MOUNT VERNON   MOSUNNY   81  64  57 W8        29.87S HX  82
PITTSFIELD     SUNNY     81  66  60 W5        29.86F HX  83
QUINCY         PTSUNNY   81  66  60 W5        29.84F HX  83
ROCKFORD       TSTM      72  65  78 SW5       29.81F
$$


CITY           SKY/WX    TMP DP  RH WIND       PRES   REMARKS
BURLINGTON     SUNNY     80  66  62 W6        29.83F HX  82
CEDAR RAPIDS   MOSUNNY   80  66  62 NW12      29.81F HX  82
DES MOINES     CLOUDY    82  62  50 NW14      29.87F HX  83
KIRKSVILLE     MOSUNNY   84  63  49 NW12      29.88F HX  85
OTTUMWA        SUNNY     81  66  60 NW12      29.84F HX  83
ST LOUIS       MOSUNNY   84  67  56 NW5       29.87F HX  86
$$


CITY           SKY/WX    TMP DP  RH WIND       PRES   REMARKS
TERRE HAUTE    MOSUNNY   79  65  62 W14       29.80S HX  81
EVANSVILLE     MOSUNNY   82  68  62 NW13G22   29.83S HX  85
INDIANAPOLIS   MOSUNNY   76  63  64 W13       29.78F
LAFAYETTE      PTSUNNY   71  63  75 CALM      29.79F
MADISON        PTSUNNY   74  63  68 E12       29.78F
MILWAUKEE      PTSUNNY   67  57  70 SE10      29.80F
$$




USA.gov is the U.S. government's official web portal to all federal, state and local government web resources and services.